N612YW CYRV-KBLI

Flight info

Callsign N612YW
Flight time 1h 5m
Altitude 24000
Route YDC DCT HUH
Aircraft P46T/L-SBDGRWY/SB1

Departure

Time 2026-04-25 02:03
Airport Revelstoke Airport (CYRV)

Arrival

Time 2026-04-25 03:08
Airport Bellingham International Airport (KBLI)
Time Latitude Longitude Altitude Speed Heading
2026-04-25 01:29 50.96011 -118.17696 1456 ft 0 kts 329°
2026-04-25 01:57 50.95997 -118.17716 1456 ft 7 kts 189°
2026-04-25 01:58 50.95949 -118.17732 1458 ft 7 kts 194°
2026-04-25 01:58 50.95899 -118.17715 1459 ft 8 kts 149°
2026-04-25 01:58 50.95856 -118.17684 1459 ft 0 kts 227°
2026-04-25 02:01 50.95848 -118.17698 1459 ft 7 kts 229°
2026-04-25 02:01 50.95815 -118.17788 1458 ft 12 kts 269°
2026-04-25 02:02 50.95873 -118.17884 1457 ft 19 kts 321°
2026-04-25 02:02 50.96089 -118.18212 1458 ft 65 kts 316°
2026-04-25 02:02 50.96506 -118.18843 1490 ft 99 kts 318°
2026-04-25 02:02 50.97015 -118.19693 1712 ft 116 kts 315°
2026-04-25 02:03 50.97607 -118.20688 2015 ft 127 kts 321°
2026-04-25 02:03 50.98265 -118.21681 2386 ft 133 kts 322°
2026-04-25 02:03 50.99005 -118.22609 2800 ft 138 kts 324°
2026-04-25 02:03 50.99708 -118.23646 3294 ft 139 kts 306°
2026-04-25 02:04 50.99843 -118.25184 3713 ft 152 kts 262°
2026-04-25 02:04 50.99394 -118.26785 3934 ft 158 kts 247°
2026-04-25 02:04 50.98913 -118.28265 4308 ft 148 kts 246°
2026-04-25 02:04 50.98444 -118.29758 4618 ft 151 kts 248°
2026-04-25 02:05 50.97978 -118.31243 5035 ft 153 kts 246°
2026-04-25 02:05 50.97485 -118.32762 5492 ft 157 kts 249°
2026-04-25 02:05 50.96955 -118.34346 5806 ft 166 kts 246°
2026-04-25 02:05 50.96417 -118.35938 6331 ft 163 kts 246°
2026-04-25 02:06 50.95892 -118.37535 6793 ft 165 kts 246°
2026-04-25 02:06 50.95348 -118.39137 7237 ft 167 kts 238°
2026-04-25 02:06 50.94482 -118.40359 7623 ft 170 kts 220°
2026-04-25 02:06 50.93535 -118.41505 8023 ft 172 kts 220°
2026-04-25 02:07 50.92573 -118.42668 8459 ft 173 kts 219°
2026-04-25 02:07 50.91518 -118.43591 8870 ft 174 kts 198°
2026-04-25 02:07 50.90347 -118.44097 9201 ft 176 kts 188°
2026-04-25 02:07 50.89133 -118.44327 9564 ft 176 kts 181°
2026-04-25 02:08 50.87894 -118.44499 9875 ft 176 kts 182°
2026-04-25 02:08 50.86680 -118.44672 10322 ft 174 kts 182°
2026-04-25 02:08 50.85468 -118.44810 10699 ft 177 kts 181°
2026-04-25 02:08 50.84220 -118.44966 10999 ft 184 kts 183°
2026-04-25 02:09 50.82872 -118.45119 11024 ft 205 kts 181°
2026-04-25 02:09 50.81404 -118.45289 11028 ft 217 kts 183°
2026-04-25 02:09 50.79872 -118.45459 11026 ft 224 kts 181°
2026-04-25 02:09 50.78294 -118.45659 11029 ft 231 kts 187°
2026-04-25 02:10 50.76782 -118.46524 11040 ft 232 kts 211°
2026-04-25 02:10 50.75520 -118.48109 11029 ft 231 kts 226°
2026-04-25 02:10 50.74394 -118.49899 11033 ft 229 kts 227°
2026-04-25 02:10 50.73234 -118.51636 11024 ft 230 kts 224°
2026-04-25 02:11 50.72042 -118.53317 11030 ft 230 kts 224°
2026-04-25 02:11 50.70851 -118.55004 11035 ft 230 kts 224°
2026-04-25 02:11 50.69665 -118.56701 11033 ft 230 kts 224°
2026-04-25 02:11 50.68481 -118.58396 11033 ft 230 kts 224°
2026-04-25 02:12 50.67295 -118.60086 11022 ft 230 kts 224°
2026-04-25 02:12 50.66121 -118.61775 11025 ft 227 kts 224°
2026-04-25 02:12 50.64944 -118.63439 11024 ft 227 kts 223°
2026-04-25 02:12 50.63774 -118.65097 11018 ft 226 kts 223°
2026-04-25 02:13 50.62607 -118.66752 11021 ft 224 kts 225°
2026-04-25 02:13 50.61456 -118.68388 11020 ft 223 kts 224°
2026-04-25 02:13 50.60308 -118.70023 11017 ft 223 kts 225°
2026-04-25 02:13 50.59161 -118.71651 11018 ft 221 kts 224°
2026-04-25 02:14 50.58018 -118.73272 11019 ft 221 kts 224°
2026-04-25 02:14 50.56874 -118.74895 11018 ft 221 kts 224°
2026-04-25 02:14 50.55726 -118.76515 11021 ft 222 kts 224°
2026-04-25 02:14 50.54579 -118.78142 11020 ft 223 kts 224°
2026-04-25 02:15 50.53422 -118.79782 11021 ft 225 kts 224°
2026-04-25 02:15 50.52261 -118.81423 11024 ft 224 kts 224°
2026-04-25 02:15 50.51101 -118.83060 11026 ft 225 kts 224°
2026-04-25 02:15 50.49931 -118.84711 11024 ft 226 kts 224°
2026-04-25 02:16 50.48766 -118.86358 11027 ft 224 kts 224°
2026-04-25 02:16 50.47608 -118.87989 11022 ft 223 kts 224°
2026-04-25 02:16 50.46451 -118.89615 11055 ft 221 kts 224°
2026-04-25 02:16 50.45323 -118.91201 11377 ft 213 kts 224°
2026-04-25 02:17 50.44237 -118.92721 11763 ft 205 kts 224°
2026-04-25 02:17 50.43193 -118.94183 12211 ft 197 kts 225°
2026-04-25 02:17 50.42194 -118.95580 12726 ft 188 kts 226°
2026-04-25 02:17 50.41227 -118.96934 13178 ft 187 kts 226°
2026-04-25 02:18 50.40251 -118.98306 13557 ft 190 kts 226°
2026-04-25 02:18 50.39264 -118.99691 13903 ft 191 kts 226°
2026-04-25 02:18 50.38268 -119.01088 14225 ft 193 kts 226°
2026-04-25 02:18 50.37262 -119.02498 14565 ft 195 kts 226°
2026-04-25 02:19 50.36243 -119.03924 14860 ft 198 kts 227°
2026-04-25 02:19 50.35212 -119.05366 15179 ft 199 kts 227°
2026-04-25 02:19 50.34190 -119.06798 15480 ft 201 kts 227°
2026-04-25 02:19 50.33143 -119.08260 15791 ft 203 kts 227°
2026-04-25 02:20 50.32086 -119.09734 16098 ft 205 kts 227°
2026-04-25 02:20 50.31018 -119.11226 16398 ft 207 kts 228°
2026-04-25 02:20 50.29940 -119.12730 16722 ft 209 kts 228°
2026-04-25 02:20 50.28849 -119.14251 17048 ft 211 kts 228°
2026-04-25 02:21 50.27746 -119.15787 17378 ft 213 kts 228°
2026-04-25 02:21 50.26634 -119.17337 17696 ft 215 kts 228°
2026-04-25 02:21 50.25505 -119.18906 17966 ft 219 kts 228°
2026-04-25 02:21 50.24366 -119.20490 18263 ft 221 kts 228°
2026-04-25 02:22 50.23218 -119.22085 18548 ft 220 kts 229°
2026-04-25 02:22 50.22071 -119.23679 18820 ft 221 kts 228°
2026-04-25 02:22 50.20915 -119.25281 19098 ft 223 kts 229°
2026-04-25 02:22 50.19755 -119.26891 19391 ft 223 kts 228°
2026-04-25 02:23 50.18595 -119.28498 19667 ft 224 kts 228°
2026-04-25 02:23 50.17427 -119.30116 19957 ft 225 kts 228°
2026-04-25 02:23 50.16252 -119.31739 20254 ft 226 kts 228°
2026-04-25 02:23 50.15074 -119.33366 20541 ft 227 kts 228°
2026-04-25 02:24 50.13893 -119.35001 20818 ft 227 kts 227°
2026-04-25 02:24 50.12701 -119.36628 21059 ft 228 kts 228°
2026-04-25 02:24 50.11536 -119.38258 21515 ft 217 kts 227°
2026-04-25 02:24 50.10438 -119.39756 22054 ft 207 kts 227°
2026-04-25 02:25 50.09353 -119.41249 22371 ft 209 kts 227°
2026-04-25 02:25 50.08264 -119.42753 22715 ft 210 kts 228°
2026-04-25 02:25 50.07172 -119.44259 23052 ft 210 kts 227°
2026-04-25 02:25 50.06447 -119.45254 23270 ft 210 kts 227°
2026-04-25 02:26 50.05347 -119.46766 23597 ft 212 kts 227°
2026-04-25 02:26 50.04241 -119.48286 23885 ft 212 kts 227°
2026-04-25 02:26 50.03126 -119.49824 24057 ft 221 kts 227°
2026-04-25 02:26 50.01939 -119.51469 24074 ft 236 kts 226°
2026-04-25 02:27 50.00675 -119.53209 24057 ft 248 kts 226°
2026-04-25 02:27 49.99355 -119.55018 24068 ft 257 kts 226°
2026-04-25 02:27 49.97994 -119.56882 24073 ft 264 kts 226°
2026-04-25 02:27 49.96600 -119.58791 24072 ft 270 kts 226°
2026-04-25 02:28 49.95180 -119.60734 24070 ft 274 kts 226°
2026-04-25 02:28 49.93745 -119.62697 24081 ft 276 kts 226°
2026-04-25 02:28 49.92297 -119.64671 24077 ft 278 kts 226°
2026-04-25 02:28 49.90841 -119.66655 24108 ft 279 kts 226°
2026-04-25 02:29 49.89382 -119.68644 24095 ft 278 kts 226°
2026-04-25 02:29 49.87923 -119.70621 24106 ft 279 kts 226°
2026-04-25 02:29 49.86464 -119.72615 24100 ft 280 kts 226°
2026-04-25 02:29 49.85002 -119.74605 24103 ft 280 kts 226°
2026-04-25 02:30 49.83553 -119.76567 24114 ft 281 kts 226°
2026-04-25 02:30 49.82085 -119.78558 24115 ft 280 kts 226°
2026-04-25 02:30 49.80599 -119.80578 24109 ft 281 kts 226°
2026-04-25 02:30 49.79129 -119.82567 24106 ft 281 kts 226°
2026-04-25 02:31 49.77675 -119.84531 24095 ft 281 kts 226°
2026-04-25 02:31 49.76202 -119.86524 24104 ft 281 kts 226°
2026-04-25 02:31 49.74730 -119.88511 24096 ft 281 kts 226°
2026-04-25 02:31 49.73259 -119.90497 24097 ft 281 kts 226°
2026-04-25 02:32 49.71790 -119.92482 24097 ft 281 kts 226°
2026-04-25 02:32 49.70319 -119.94464 24086 ft 281 kts 226°
2026-04-25 02:32 49.68845 -119.96447 24090 ft 280 kts 226°
2026-04-25 02:32 49.67376 -119.98424 24086 ft 281 kts 226°
2026-04-25 02:33 49.65902 -120.00405 24099 ft 281 kts 226°
2026-04-25 02:33 49.64425 -120.02388 24101 ft 282 kts 226°
2026-04-25 02:33 49.62948 -120.04371 24094 ft 282 kts 226°
2026-04-25 02:33 49.61466 -120.06357 24092 ft 282 kts 226°
2026-04-25 02:34 49.59987 -120.08339 24085 ft 282 kts 226°
2026-04-25 02:34 49.58510 -120.10318 24084 ft 281 kts 226°
2026-04-25 02:34 49.57031 -120.12299 24079 ft 282 kts 226°
2026-04-25 02:34 49.55550 -120.14278 24080 ft 282 kts 226°
2026-04-25 02:35 49.54066 -120.16258 24077 ft 282 kts 226°
2026-04-25 02:35 49.52581 -120.18238 24074 ft 282 kts 226°
2026-04-25 02:35 49.51096 -120.20220 24075 ft 282 kts 226°
2026-04-25 02:35 49.49613 -120.22195 24074 ft 283 kts 226°
2026-04-25 02:36 49.48126 -120.24173 24069 ft 282 kts 226°
2026-04-25 02:36 49.46641 -120.26147 24066 ft 282 kts 226°
2026-04-25 02:36 49.45161 -120.28114 24068 ft 281 kts 226°
2026-04-25 02:36 49.43684 -120.30078 24071 ft 280 kts 226°
2026-04-25 02:37 49.42204 -120.32042 24068 ft 282 kts 226°
2026-04-25 02:37 49.40716 -120.34011 24068 ft 283 kts 226°
2026-04-25 02:37 49.39253 -120.36029 24073 ft 281 kts 233°
2026-04-25 02:37 49.38145 -120.38437 24072 ft 273 kts 250°
2026-04-25 02:38 49.37471 -120.41103 24079 ft 265 kts 263°
2026-04-25 02:38 49.36969 -120.43834 24075 ft 266 kts 262°
2026-04-25 02:38 49.36451 -120.46559 24075 ft 266 kts 262°
2026-04-25 02:38 49.35937 -120.49284 24073 ft 266 kts 263°
2026-04-25 02:39 49.35426 -120.52017 24076 ft 267 kts 263°
2026-04-25 02:39 49.34910 -120.54756 24074 ft 267 kts 262°
2026-04-25 02:39 49.34393 -120.57496 24075 ft 268 kts 262°
2026-04-25 02:39 49.33876 -120.60239 24076 ft 268 kts 262°
2026-04-25 02:40 49.33357 -120.62981 24071 ft 268 kts 262°
2026-04-25 02:40 49.32839 -120.65717 24075 ft 267 kts 262°
2026-04-25 02:40 49.32321 -120.68451 24073 ft 267 kts 263°
2026-04-25 02:40 49.31803 -120.71180 24072 ft 267 kts 262°
2026-04-25 02:41 49.31291 -120.73870 24074 ft 267 kts 262°
2026-04-25 02:41 49.30771 -120.76601 24074 ft 267 kts 262°
2026-04-25 02:41 49.30251 -120.79328 24070 ft 266 kts 262°
2026-04-25 02:41 49.29732 -120.82047 24072 ft 266 kts 262°
2026-04-25 02:42 49.29211 -120.84768 24068 ft 266 kts 262°
2026-04-25 02:42 49.28691 -120.87487 24069 ft 266 kts 262°
2026-04-25 02:42 49.28169 -120.90207 24068 ft 266 kts 262°
2026-04-25 02:42 49.27647 -120.92918 24075 ft 265 kts 262°
2026-04-25 02:43 49.27128 -120.95631 24068 ft 266 kts 263°
2026-04-25 02:43 49.26605 -120.98346 24068 ft 266 kts 262°
2026-04-25 02:43 49.26078 -121.01070 24066 ft 267 kts 262°
2026-04-25 02:43 49.25555 -121.03787 24064 ft 266 kts 262°
2026-04-25 02:44 49.25029 -121.06495 24063 ft 265 kts 262°
2026-04-25 02:44 49.24506 -121.09187 24064 ft 263 kts 262°
2026-04-25 02:44 49.23991 -121.11850 24061 ft 260 kts 263°
2026-04-25 02:44 49.23477 -121.14520 24064 ft 263 kts 262°
2026-04-25 02:45 49.22950 -121.17218 24058 ft 265 kts 262°
2026-04-25 02:45 49.22420 -121.19923 24034 ft 264 kts 262°
2026-04-25 02:45 49.21898 -121.22607 24054 ft 264 kts 262°
2026-04-25 02:45 49.21372 -121.25301 24068 ft 264 kts 262°
2026-04-25 02:46 49.20843 -121.28017 23920 ft 271 kts 262°
2026-04-25 02:46 49.20298 -121.30847 23521 ft 283 kts 261°
2026-04-25 02:46 49.19728 -121.33744 23110 ft 280 kts 261°
2026-04-25 02:46 49.19169 -121.36547 22751 ft 271 kts 262°
2026-04-25 02:47 49.18629 -121.39270 22446 ft 265 kts 262°
2026-04-25 02:47 49.18105 -121.41946 22135 ft 262 kts 262°
2026-04-25 02:47 49.17581 -121.44616 21803 ft 262 kts 262°
2026-04-25 02:47 49.17055 -121.47280 21465 ft 263 kts 262°
2026-04-25 02:48 49.16524 -121.49962 21117 ft 264 kts 262°
2026-04-25 02:48 49.15994 -121.52651 20759 ft 266 kts 262°
2026-04-25 02:48 49.15457 -121.55351 20400 ft 266 kts 262°
2026-04-25 02:48 49.14918 -121.58055 20036 ft 265 kts 263°
2026-04-25 02:49 49.14387 -121.60723 19693 ft 260 kts 263°
2026-04-25 02:49 49.13864 -121.63346 19380 ft 258 kts 263°
2026-04-25 02:49 49.13341 -121.65978 19050 ft 260 kts 263°
2026-04-25 02:49 49.12813 -121.68631 18662 ft 264 kts 263°
2026-04-25 02:50 49.12283 -121.71294 18242 ft 267 kts 263°
2026-04-25 02:50 49.11740 -121.73997 17855 ft 266 kts 263°
2026-04-25 02:50 49.11199 -121.76670 17522 ft 260 kts 263°
2026-04-25 02:50 49.10675 -121.79267 17220 ft 253 kts 263°
2026-04-25 02:51 49.10167 -121.81779 16970 ft 245 kts 263°
2026-04-25 02:51 49.09666 -121.84276 16672 ft 248 kts 263°
2026-04-25 02:51 49.09161 -121.86809 16323 ft 251 kts 263°
2026-04-25 02:51 49.08646 -121.89365 15965 ft 253 kts 263°
2026-04-25 02:52 49.08125 -121.91924 15621 ft 251 kts 263°
2026-04-25 02:52 49.07615 -121.94462 15329 ft 251 kts 263°
2026-04-25 02:52 49.07095 -121.97026 14980 ft 254 kts 263°
2026-04-25 02:52 49.06570 -121.99604 14637 ft 255 kts 262°
2026-04-25 02:53 49.06046 -122.02173 14305 ft 252 kts 263°
2026-04-25 02:53 49.05526 -122.04719 14000 ft 252 kts 262°
2026-04-25 02:53 49.05010 -122.07281 13640 ft 253 kts 262°
2026-04-25 02:53 49.04498 -122.09779 13321 ft 242 kts 262°
2026-04-25 02:54 49.04001 -122.12181 13064 ft 234 kts 262°
2026-04-25 02:54 49.03521 -122.14529 12798 ft 231 kts 262°
2026-04-25 02:54 49.03047 -122.16857 12517 ft 229 kts 262°
2026-04-25 02:54 49.02573 -122.19173 12231 ft 228 kts 262°
2026-04-25 02:55 49.02100 -122.21478 11942 ft 229 kts 262°
2026-04-25 02:55 49.01623 -122.23811 11630 ft 233 kts 261°
2026-04-25 02:55 49.01138 -122.26178 11307 ft 235 kts 261°
2026-04-25 02:55 49.00648 -122.28558 10987 ft 236 kts 260°
2026-04-25 02:56 49.00155 -122.30942 10673 ft 236 kts 260°
2026-04-25 02:56 48.99666 -122.33318 10368 ft 235 kts 259°
2026-04-25 02:56 48.99180 -122.35662 10082 ft 230 kts 259°
2026-04-25 02:56 48.98702 -122.37961 9795 ft 225 kts 259°
2026-04-25 02:57 48.98233 -122.40221 9514 ft 222 kts 259°
2026-04-25 02:57 48.97771 -122.42449 9240 ft 220 kts 259°
2026-04-25 02:57 48.97313 -122.44660 8954 ft 218 kts 259°
2026-04-25 02:57 48.96857 -122.46853 8683 ft 217 kts 259°
2026-04-25 02:58 48.96403 -122.49036 8410 ft 216 kts 259°
2026-04-25 02:58 48.95949 -122.51213 8136 ft 215 kts 258°
2026-04-25 02:58 48.95427 -122.53313 7985 ft 210 kts 246°
2026-04-25 02:58 48.94517 -122.54951 7899 ft 208 kts 224°
2026-04-25 02:59 48.93362 -122.56318 7645 ft 212 kts 220°
2026-04-25 02:59 48.92179 -122.57674 7356 ft 214 kts 220°
2026-04-25 02:59 48.90989 -122.59071 7017 ft 218 kts 220°
2026-04-25 02:59 48.89798 -122.60483 6613 ft 217 kts 220°
2026-04-25 03:00 48.88617 -122.61877 6177 ft 214 kts 220°
2026-04-25 03:00 48.87449 -122.63251 5736 ft 211 kts 220°
2026-04-25 03:00 48.86302 -122.64600 5324 ft 206 kts 220°
2026-04-25 03:00 48.85177 -122.65921 4913 ft 202 kts 220°
2026-04-25 03:01 48.84082 -122.67205 4626 ft 194 kts 220°
2026-04-25 03:01 48.83026 -122.68440 4394 ft 191 kts 220°
2026-04-25 03:01 48.81967 -122.69683 4138 ft 193 kts 220°
2026-04-25 03:01 48.80904 -122.70933 3878 ft 194 kts 221°
2026-04-25 03:02 48.79835 -122.72187 3617 ft 194 kts 220°
2026-04-25 03:02 48.78759 -122.73415 3352 ft 194 kts 216°
2026-04-25 03:02 48.77485 -122.74128 3084 ft 198 kts 192°
2026-04-25 03:02 48.76110 -122.74086 2822 ft 200 kts 170°
2026-04-25 03:03 48.74833 -122.73272 2558 ft 200 kts 147°
2026-04-25 03:03 48.73847 -122.71810 2296 ft 198 kts 126°
2026-04-25 03:03 48.73056 -122.70103 2043 ft 197 kts 126°
2026-04-25 03:03 48.72270 -122.68463 1996 ft 187 kts 126°
2026-04-25 03:04 48.71512 -122.66870 1991 ft 185 kts 126°
2026-04-25 03:04 48.70761 -122.65295 1986 ft 184 kts 126°
2026-04-25 03:04 48.70008 -122.63723 1926 ft 186 kts 126°
2026-04-25 03:05 48.68921 -122.60401 1878 ft 169 kts 98°
2026-04-25 03:05 48.68913 -122.58631 1766 ft 169 kts 81°
2026-04-25 03:05 48.69260 -122.56938 1671 ft 169 kts 64°
2026-04-25 03:05 48.69930 -122.55478 1562 ft 169 kts 46°
2026-04-25 03:06 48.70858 -122.54396 1450 ft 167 kts 28°
2026-04-25 03:06 48.71895 -122.53813 1329 ft 157 kts 11°
2026-04-25 03:06 48.72952 -122.53696 1278 ft 147 kts 357°
2026-04-25 03:06 48.73954 -122.53722 1225 ft 146 kts 357°
2026-04-25 03:07 48.75001 -122.53710 1003 ft 153 kts 359°
2026-04-25 03:07 48.75997 -122.53735 801 ft 130 kts 358°
2026-04-25 03:07 48.76809 -122.53756 606 ft 102 kts
2026-04-25 03:07 48.77455 -122.53746 413 ft 88 kts
2026-04-25 03:08 48.78058 -122.53752 261 ft 86 kts 360°
2026-04-25 03:08 48.78650 -122.53754 187 ft 82 kts
2026-04-25 03:08 48.79167 -122.53746 171 ft 65 kts
2026-04-25 03:08 48.79471 -122.53758 168 ft 16 kts
2026-04-25 03:09 48.79553 -122.53706 169 ft 15 kts 92°
2026-04-25 03:09 48.79510 -122.53633 166 ft 0 kts 141°
2026-04-25 03:10 48.79506 -122.53628 165 ft 5 kts 141°
2026-04-25 03:10 48.79448 -122.53559 164 ft 16 kts 142°
2026-04-25 03:10 48.79354 -122.53444 162 ft 13 kts 133°
2026-04-25 03:11 48.79349 -122.53356 159 ft 11 kts 122°
2026-04-25 03:11 48.79328 -122.53351 159 ft 1 kts 216°
2026-04-25 03:11 48.79326 -122.53354 160 ft 0 kts 228°